COSMOS 2251 DEB, 39583

Orbit data source: Space-Track

COSMOS 2251 DEB, 39583 is space debris in LEO originally from a launch on Wed, 16 Jun 1993 UTC launched from the Plesetsk Missile And Space Complex (PKMTR). The debris from Iridium 33, an American commercial communications satellite, has been tracked extensively since its accidental collision with the defunct Russian satellite Cosmos 2251 in 2009. This event, occurring at high speed in low Earth orbit (LEO), generated thousands of pieces of space debris, significantly increasing the risk of further collisions. The Iridium 33 debris cloud has impacted space traffic management and orbital debris mitigation strategies, making it a subject of ongoing study in space situational awareness.

Loading next visibility...
Identifier
39583, 1993-036BUN
Orbit
LEO
Country
Flag of CISCIS
Related business
Manufacturer
Unknown
Mission
Spacecraft
Bus & Motor
Unknown
Mass
Unknown
Launch date (UTC)
1993-06-16 (33 years ago)
Launch vehicle
Unknown
Launch site
Plesetsk Missile And Space Complex (PKMTR)
Object type
Payload
Rocket body
Debris
Shape & HBR
Unknown shape, 0.1 m
Radar Cross Section
Medium (>0.1 m² and <1 m²)

Expand to show TLE details & history
Last TLE update: 15 hours ago

TLE from 15 hours ago
0 COSMOS 2251 DEB
1 39583U 93036BUN 26174.92056266  .00003901  00000-0  66245-3 0  9994
2 39583  73.9309 234.6753 0133274 306.0009  52.8861 14.63827572646033
Epoch: 2026-06-23T22:05Z
TLE epoch observation values (Epoch: 2026-06-23T22:05:36.613Z)
Latitude
-0.00002°
Longitude
-8.81246°
Altitude
627.512 km
Speed
7.575 km/s
True Right ascension
15h 38m 42s
True Declination
0° 00' 00"
Sunlit
Object was in full shadow at epoch
Visualization orbit readout
Latitude
Unknown
Longitude
Unknown
Altitude
Unknown
Speed
Unknown
Apparent Right ascension
Unknown
Apparent Declination
Unknown
Sunlit
N/A
Visualization observer readout
Local Sidereal Time
00:15:20
Azimuth
Unknown
Elevation
Unknown
Doppler factor
Unknown
Orbital elements
Apogee altitude
772.49 km
Perigee altitude
584.398 km
Semi-major axis
7,056.581 km
Eccentricity
0.01333
Inclination
73.9309°
RAAN
234.6753°
Arg. of periapsis
306.0009°
True anomaly
54.11622°
Mean anomaly
52.8861°
Eccentric anomaly
53.49993°
Mean motion
3.66144 °/min
Orbital period
98.32 mins
BSTAR
0.00066245
Loading maneuver chart data...
Computing Atmospheric mass density...

Documentation

Showing up to 5 results
|